Location: Sungai Buloh
(3.1000°N, 113.0000°E)
Time: 21:31:55
(UTC+00:00)

Ariane H10-3 - Pass Details

Date: 12 January 2026
Orbit: 507 x 36334 km, 5.3° (Epoch: 9 February)

Event Time Altitude Azimuth Distance (km) Brightness Sun altitude
Exits shadow 20:52:02 30° 176° (S) 927 2.6 -25.4°
Drops below altitude 10° 20:54:34 10° 121° (ESE) 1,759 4.9 -24.8°
Sets 20:57:03 0° 108° (ESE) 3,006 6.5 -24.2°
